owner,sensor,date,latitude,longitude,relative_humidity,qcFlag 
COMPS,ioos:station:USF.COMPS:SHP:1,2017-08-01T00:00:00Z,30.0600,-84.2910,47.75,1111122 
COMPS,ioos:station:USF.COMPS:SHP:1,2017-08-01T00:06:00Z,30.0600,-84.2910,48.87,1111122 
COMPS,ioos:station:USF.COMPS:SHP:1,2017-08-01T00:12:00Z,30.0600,-84.2910,49.22,1111122 
COMPS,ioos:station:USF.COMPS:SHP:1,2017-08-01T00:18:00Z,30.0600,-84.2910,50.16,1111122 
COMPS,ioos:station:USF.COMPS:SHP:1,2017-08-01T00:24:00Z,30.0600,-84.2910,51.0,1111122 
COMPS,ioos:station:USF.COMPS:SHP:1,2017-08-01T00:30:00Z,30.0600,-84.2910,51.7,1111122 
COMPS,ioos:station:USF.COMPS:SHP:1,2017-08-01T00:36:00Z,30.0600,-84.2910,52.58,1111122 
COMPS,ioos:station:USF.COMPS:SHP:1,2017-08-01T00:42:00Z,30.0600,-84.2910,53.52,1111122 
COMPS,ioos:station:USF.COMPS:SHP:1,2017-08-01T00:48:00Z,30.0600,-84.2910,54.89,1111122 
COMPS,ioos:station:USF.COMPS:SHP:1,2017-08-01T00:54:00Z,30.0600,-84.2910,55.42,1111122 
COMPS,ioos:station:USF.COMPS:SHP:1,2017-08-01T01:00:00Z,30.0600,-84.2910,55.76,1111122 
COMPS,ioos:station:USF.COMPS:SHP:1,2017-08-01T01:06:00Z,30.0600,-84.2910,55.77,1111122 
COMPS,ioos:station:USF.COMPS:SHP:1,2017-08-01T01:12:00Z,30.0600,-84.2910,56.06,1111122 
COMPS,ioos:station:USF.COMPS:SHP:1,2017-08-01T01:18:00Z,30.0600,-84.2910,55.77,1111122 
COMPS,ioos:station:USF.COMPS:SHP:1,2017-08-01T01:24:00Z,30.0600,-84.2910,55.84,1111122 
COMPS,ioos:station:USF.COMPS:SHP:1,2017-08-01T01:30:00Z,30.0600,-84.2910,55.9,1111122 
COMPS,ioos:station:USF.COMPS:SHP:1,2017-08-01T01:36:00Z,30.0600,-84.2910,56.43,1111122 
COMPS,ioos:station:USF.COMPS:SHP:1,2017-08-01T01:42:00Z,30.0600,-84.2910,56.41,1111122 
COMPS,ioos:station:USF.COMPS:SHP:1,2017-08-01T01:48:00Z,30.0600,-84.2910,56.29,1111122 
COMPS,ioos:station:USF.COMPS:SHP:1,2017-08-01T01:54:00Z,30.0600,-84.2910,56.52,1111122 
COMPS,ioos:station:USF.COMPS:SHP:1,2017-08-01T02:00:00Z,30.0600,-84.2910,56.15,1111122 
COMPS,ioos:station:USF.COMPS:SHP:1,2017-08-01T02:06:00Z,30.0600,-84.2910,55.92,1111122 
COMPS,ioos:station:USF.COMPS:SHP:1,2017-08-01T02:12:00Z,30.0600,-84.2910,56.31,1111122 
COMPS,ioos:station:USF.COMPS:SHP:1,2017-08-01T02:18:00Z,30.0600,-84.2910,56.43,1111122 
COMPS,ioos:station:USF.COMPS:SHP:1,2017-08-01T02:24:00Z,30.0600,-84.2910,56.4,1111122 
COMPS,ioos:station:USF.COMPS:SHP:1,2017-08-01T02:30:00Z,30.0600,-84.2910,56.49,1111122 
COMPS,ioos:station:USF.COMPS:SHP:1,2017-08-01T02:36:00Z,30.0600,-84.2910,56.05,1111122 
COMPS,ioos:station:USF.COMPS:SHP:1,2017-08-01T02:42:00Z,30.0600,-84.2910,56.04,1111122 
COMPS,ioos:station:USF.COMPS:SHP:1,2017-08-01T02:48:00Z,30.0600,-84.2910,55.97,1111122 
COMPS,ioos:station:USF.COMPS:SHP:1,2017-08-01T02:54:00Z,30.0600,-84.2910,56.06,1111122 
COMPS,ioos:station:USF.COMPS:SHP:1,2017-08-01T03:00:00Z,30.0600,-84.2910,56.25,1111122 
COMPS,ioos:station:USF.COMPS:SHP:1,2017-08-01T03:06:00Z,30.0600,-84.2910,56.53,1111122 
COMPS,ioos:station:USF.COMPS:SHP:1,2017-08-01T03:12:00Z,30.0600,-84.2910,56.97,1111122 
COMPS,ioos:station:USF.COMPS:SHP:1,2017-08-01T03:18:00Z,30.0600,-84.2910,57.98,1111122 
COMPS,ioos:station:USF.COMPS:SHP:1,2017-08-01T03:24:00Z,30.0600,-84.2910,58.46,1111122 
COMPS,ioos:station:USF.COMPS:SHP:1,2017-08-01T03:30:00Z,30.0600,-84.2910,58.56,1111122 
COMPS,ioos:station:USF.COMPS:SHP:1,2017-08-01T03:36:00Z,30.0600,-84.2910,58.38,1111122 
COMPS,ioos:station:USF.COMPS:SHP:1,2017-08-01T03:42:00Z,30.0600,-84.2910,58.83,1111122 
COMPS,ioos:station:USF.COMPS:SHP:1,2017-08-01T03:48:00Z,30.0600,-84.2910,59.74,1111122 
COMPS,ioos:station:USF.COMPS:SHP:1,2017-08-01T03:54:00Z,30.0600,-84.2910,59.95,1111122 
COMPS,ioos:station:USF.COMPS:SHP:1,2017-08-01T04:00:00Z,30.0600,-84.2910,60.57,1111122 
COMPS,ioos:station:USF.COMPS:SHP:1,2017-08-01T04:06:00Z,30.0600,-84.2910,61.08,1111122 
COMPS,ioos:station:USF.COMPS:SHP:1,2017-08-01T04:12:00Z,30.0600,-84.2910,61.27,1111122 
COMPS,ioos:station:USF.COMPS:SHP:1,2017-08-01T04:18:00Z,30.0600,-84.2910,60.52,1111122 
COMPS,ioos:station:USF.COMPS:SHP:1,2017-08-01T04:24:00Z,30.0600,-84.2910,60.67,1111122 
COMPS,ioos:station:USF.COMPS:SHP:1,2017-08-01T04:30:00Z,30.0600,-84.2910,62.23,1111122 
COMPS,ioos:station:USF.COMPS:SHP:1,2017-08-01T04:36:00Z,30.0600,-84.2910,63.82,1111122 
COMPS,ioos:station:USF.COMPS:SHP:1,2017-08-01T04:42:00Z,30.0600,-84.2910,65.03,1111122 
COMPS,ioos:station:USF.COMPS:SHP:1,2017-08-01T04:48:00Z,30.0600,-84.2910,65.05,1111122 
COMPS,ioos:station:USF.COMPS:SHP:1,2017-08-01T04:54:00Z,30.0600,-84.2910,65.75,1111122 
COMPS,ioos:station:USF.COMPS:SHP:1,2017-08-01T05:00:00Z,30.0600,-84.2910,67.01,1111122 
COMPS,ioos:station:USF.COMPS:SHP:1,2017-08-01T05:06:00Z,30.0600,-84.2910,67.49,1111122 
COMPS,ioos:station:USF.COMPS:SHP:1,2017-08-01T05:12:00Z,30.0600,-84.2910,68.29,1111122 
COMPS,ioos:station:USF.COMPS:SHP:1,2017-08-01T05:18:00Z,30.0600,-84.2910,69.09,1111122 
COMPS,ioos:station:USF.COMPS:SHP:1,2017-08-01T05:24:00Z,30.0600,-84.2910,69.59,1111122 
COMPS,ioos:station:USF.COMPS:SHP:1,2017-08-01T05:30:00Z,30.0600,-84.2910,70.48,1111122 
COMPS,ioos:station:USF.COMPS:SHP:1,2017-08-01T05:36:00Z,30.0600,-84.2910,70.97,1111122 
COMPS,ioos:station:USF.COMPS:SHP:1,2017-08-01T05:42:00Z,30.0600,-84.2910,69.83,1111122 
COMPS,ioos:station:USF.COMPS:SHP:1,2017-08-01T05:48:00Z,30.0600,-84.2910,70.25,1111122 
COMPS,ioos:station:USF.COMPS:SHP:1,2017-08-01T05:54:00Z,30.0600,-84.2910,70.9,1111122 
COMPS,ioos:station:USF.COMPS:SHP:1,2017-08-01T06:00:00Z,30.0600,-84.2910,72.51,1111122 
COMPS,ioos:station:USF.COMPS:SHP:1,2017-08-01T06:06:00Z,30.0600,-84.2910,74.12,1111122 
COMPS,ioos:station:USF.COMPS:SHP:1,2017-08-01T06:12:00Z,30.0600,-84.2910,74.09,1111122 
COMPS,ioos:station:USF.COMPS:SHP:1,2017-08-01T06:18:00Z,30.0600,-84.2910,74.56,1111122 
COMPS,ioos:station:USF.COMPS:SHP:1,2017-08-01T06:24:00Z,30.0600,-84.2910,74.83,1111122 
COMPS,ioos:station:USF.COMPS:SHP:1,2017-08-01T06:30:00Z,30.0600,-84.2910,73.76,1111122 
COMPS,ioos:station:USF.COMPS:SHP:1,2017-08-01T06:36:00Z,30.0600,-84.2910,73.74,1111122 
COMPS,ioos:station:USF.COMPS:SHP:1,2017-08-01T06:42:00Z,30.0600,-84.2910,73.32,1111122 
COMPS,ioos:station:USF.COMPS:SHP:1,2017-08-01T06:48:00Z,30.0600,-84.2910,73.41,1111122 
COMPS,ioos:station:USF.COMPS:SHP:1,2017-08-01T06:54:00Z,30.0600,-84.2910,74.03,1111122 
COMPS,ioos:station:USF.COMPS:SHP:1,2017-08-01T07:00:00Z,30.0600,-84.2910,74.82,1111122 
COMPS,ioos:station:USF.COMPS:SHP:1,2017-08-01T07:06:00Z,30.0600,-84.2910,75.24,1111122 
COMPS,ioos:station:USF.COMPS:SHP:1,2017-08-01T07:12:00Z,30.0600,-84.2910,75.73,1111122 
COMPS,ioos:station:USF.COMPS:SHP:1,2017-08-01T07:18:00Z,30.0600,-84.2910,75.74,1111122 
COMPS,ioos:station:USF.COMPS:SHP:1,2017-08-01T07:24:00Z,30.0600,-84.2910,75.52,1111122 
COMPS,ioos:station:USF.COMPS:SHP:1,2017-08-01T07:30:00Z,30.0600,-84.2910,74.87,1111122 
COMPS,ioos:station:USF.COMPS:SHP:1,2017-08-01T07:36:00Z,30.0600,-84.2910,74.73,1111122 
COMPS,ioos:station:USF.COMPS:SHP:1,2017-08-01T07:42:00Z,30.0600,-84.2910,74.15,1111122 
COMPS,ioos:station:USF.COMPS:SHP:1,2017-08-01T07:48:00Z,30.0600,-84.2910,74.05,1111122 
COMPS,ioos:station:USF.COMPS:SHP:1,2017-08-01T07:54:00Z,30.0600,-84.2910,77.1,1111122 
COMPS,ioos:station:USF.COMPS:SHP:1,2017-08-01T08:00:00Z,30.0600,-84.2910,78.11,1111122 
COMPS,ioos:station:USF.COMPS:SHP:1,2017-08-01T08:06:00Z,30.0600,-84.2910,77.99,1111122 
COMPS,ioos:station:USF.COMPS:SHP:1,2017-08-01T08:12:00Z,30.0600,-84.2910,77.97,1111122 
COMPS,ioos:station:USF.COMPS:SHP:1,2017-08-01T08:18:00Z,30.0600,-84.2910,78.28,1111122 
COMPS,ioos:station:USF.COMPS:SHP:1,2017-08-01T08:24:00Z,30.0600,-84.2910,78.7,1111122 
COMPS,ioos:station:USF.COMPS:SHP:1,2017-08-01T08:30:00Z,30.0600,-84.2910,78.11,1111122 
COMPS,ioos:station:USF.COMPS:SHP:1,2017-08-01T08:36:00Z,30.0600,-84.2910,78.36,1111122 
COMPS,ioos:station:USF.COMPS:SHP:1,2017-08-01T08:42:00Z,30.0600,-84.2910,79.9,1111122 
COMPS,ioos:station:USF.COMPS:SHP:1,2017-08-01T08:48:00Z,30.0600,-84.2910,80.61,1111122 
COMPS,ioos:station:USF.COMPS:SHP:1,2017-08-01T08:54:00Z,30.0600,-84.2910,80.47,1111122 
COMPS,ioos:station:USF.COMPS:SHP:1,2017-08-01T09:00:00Z,30.0600,-84.2910,80.3,1111122 
COMPS,ioos:station:USF.COMPS:SHP:1,2017-08-01T09:06:00Z,30.0600,-84.2910,81.24,1111122 
COMPS,ioos:station:USF.COMPS:SHP:1,2017-08-01T09:12:00Z,30.0600,-84.2910,80.86,1111122 
COMPS,ioos:station:USF.COMPS:SHP:1,2017-08-01T09:18:00Z,30.0600,-84.2910,81.17,1111122 
COMPS,ioos:station:USF.COMPS:SHP:1,2017-08-01T09:24:00Z,30.0600,-84.2910,80.94,1111122 
COMPS,ioos:station:USF.COMPS:SHP:1,2017-08-01T09:30:00Z,30.0600,-84.2910,81.08,1111122 
COMPS,ioos:station:USF.COMPS:SHP:1,2017-08-01T09:36:00Z,30.0600,-84.2910,81.76,1111122 
COMPS,ioos:station:USF.COMPS:SHP:1,2017-08-01T09:42:00Z,30.0600,-84.2910,82.23,1111122 
COMPS,ioos:station:USF.COMPS:SHP:1,2017-08-01T09:48:00Z,30.0600,-84.2910,83.27,1111122 
COMPS,ioos:station:USF.COMPS:SHP:1,2017-08-01T09:54:00Z,30.0600,-84.2910,83.28,1111122 
COMPS,ioos:station:USF.COMPS:SHP:1,2017-08-01T10:00:00Z,30.0600,-84.2910,84.05,1111122 
COMPS,ioos:station:USF.COMPS:SHP:1,2017-08-01T10:06:00Z,30.0600,-84.2910,84.09,1111122 
COMPS,ioos:station:USF.COMPS:SHP:1,2017-08-01T10:12:00Z,30.0600,-84.2910,84.89,1111122 
COMPS,ioos:station:USF.COMPS:SHP:1,2017-08-01T10:18:00Z,30.0600,-84.2910,85.27,1111122 
COMPS,ioos:station:USF.COMPS:SHP:1,2017-08-01T10:24:00Z,30.0600,-84.2910,85.3,1111122 
COMPS,ioos:station:USF.COMPS:SHP:1,2017-08-01T10:30:00Z,30.0600,-84.2910,85.12,1111122 
COMPS,ioos:station:USF.COMPS:SHP:1,2017-08-01T10:36:00Z,30.0600,-84.2910,85.53,1111122 
COMPS,ioos:station:USF.COMPS:SHP:1,2017-08-01T10:42:00Z,30.0600,-84.2910,85.52,1111122 
COMPS,ioos:station:USF.COMPS:SHP:1,2017-08-01T10:48:00Z,30.0600,-84.2910,85.69,1111122 
COMPS,ioos:station:USF.COMPS:SHP:1,2017-08-01T10:54:00Z,30.0600,-84.2910,86.14,1111122 
COMPS,ioos:station:USF.COMPS:SHP:1,2017-08-01T11:00:00Z,30.0600,-84.2910,85.93,1111122 
COMPS,ioos:station:USF.COMPS:SHP:1,2017-08-01T11:06:00Z,30.0600,-84.2910,86.44,1111122 
COMPS,ioos:station:USF.COMPS:SHP:1,2017-08-01T11:12:00Z,30.0600,-84.2910,86.61,1111122 
COMPS,ioos:station:USF.COMPS:SHP:1,2017-08-01T11:18:00Z,30.0600,-84.2910,86.62,1111122 
COMPS,ioos:station:USF.COMPS:SHP:1,2017-08-01T11:24:00Z,30.0600,-84.2910,87.15,1111122 
COMPS,ioos:station:USF.COMPS:SHP:1,2017-08-01T11:30:00Z,30.0600,-84.2910,87.41,1111122 
COMPS,ioos:station:USF.COMPS:SHP:1,2017-08-01T11:36:00Z,30.0600,-84.2910,86.67,1111122 
COMPS,ioos:station:USF.COMPS:SHP:1,2017-08-01T11:42:00Z,30.0600,-84.2910,86.2,1111122 
COMPS,ioos:station:USF.COMPS:SHP:1,2017-08-01T11:48:00Z,30.0600,-84.2910,85.61,1111122 
COMPS,ioos:station:USF.COMPS:SHP:1,2017-08-01T11:54:00Z,30.0600,-84.2910,85.49,1111122 
COMPS,ioos:station:USF.COMPS:SHP:1,2017-08-01T12:00:00Z,30.0600,-84.2910,85.47,1111122 
COMPS,ioos:station:USF.COMPS:SHP:1,2017-08-01T12:06:00Z,30.0600,-84.2910,85.22,1111122 
COMPS,ioos:station:USF.COMPS:SHP:1,2017-08-01T12:12:00Z,30.0600,-84.2910,84.4,1111122 
COMPS,ioos:station:USF.COMPS:SHP:1,2017-08-01T12:18:00Z,30.0600,-84.2910,82.34,1111122 
COMPS,ioos:station:USF.COMPS:SHP:1,2017-08-01T12:24:00Z,30.0600,-84.2910,80.37,1111122 
COMPS,ioos:station:USF.COMPS:SHP:1,2017-08-01T12:30:00Z,30.0600,-84.2910,79.35,1111122 
COMPS,ioos:station:USF.COMPS:SHP:1,2017-08-01T12:36:00Z,30.0600,-84.2910,77.96,1111122 
COMPS,ioos:station:USF.COMPS:SHP:1,2017-08-01T12:42:00Z,30.0600,-84.2910,77.29,1111122 
COMPS,ioos:station:USF.COMPS:SHP:1,2017-08-01T12:48:00Z,30.0600,-84.2910,77.32,1111122 
COMPS,ioos:station:USF.COMPS:SHP:1,2017-08-01T12:54:00Z,30.0600,-84.2910,77.15,1111122 
COMPS,ioos:station:USF.COMPS:SHP:1,2017-08-01T13:00:00Z,30.0600,-84.2910,76.48,1111122 
COMPS,ioos:station:USF.COMPS:SHP:1,2017-08-01T13:06:00Z,30.0600,-84.2910,76.46,1111122 
COMPS,ioos:station:USF.COMPS:SHP:1,2017-08-01T13:12:00Z,30.0600,-84.2910,75.2,1111122 
COMPS,ioos:station:USF.COMPS:SHP:1,2017-08-01T13:18:00Z,30.0600,-84.2910,74.17,1111122 
COMPS,ioos:station:USF.COMPS:SHP:1,2017-08-01T13:24:00Z,30.0600,-84.2910,73.6,1111122 
COMPS,ioos:station:USF.COMPS:SHP:1,2017-08-01T13:30:00Z,30.0600,-84.2910,72.02,1111122 
COMPS,ioos:station:USF.COMPS:SHP:1,2017-08-01T13:36:00Z,30.0600,-84.2910,70.94,1111122 
COMPS,ioos:station:USF.COMPS:SHP:1,2017-08-01T13:42:00Z,30.0600,-84.2910,70.36,1111122 
COMPS,ioos:station:USF.COMPS:SHP:1,2017-08-01T13:48:00Z,30.0600,-84.2910,69.47,1111122 
COMPS,ioos:station:USF.COMPS:SHP:1,2017-08-01T13:54:00Z,30.0600,-84.2910,68.07,1111122 
COMPS,ioos:station:USF.COMPS:SHP:1,2017-08-01T14:00:00Z,30.0600,-84.2910,65.54,1111122 
COMPS,ioos:station:USF.COMPS:SHP:1,2017-08-01T14:06:00Z,30.0600,-84.2910,62.44,1111122 
COMPS,ioos:station:USF.COMPS:SHP:1,2017-08-01T14:12:00Z,30.0600,-84.2910,61.46,1111122 
COMPS,ioos:station:USF.COMPS:SHP:1,2017-08-01T14:18:00Z,30.0600,-84.2910,60.6,1111122 
COMPS,ioos:station:USF.COMPS:SHP:1,2017-08-01T14:24:00Z,30.0600,-84.2910,60.96,1111122 
COMPS,ioos:station:USF.COMPS:SHP:1,2017-08-01T14:30:00Z,30.0600,-84.2910,60.97,1111122 
COMPS,ioos:station:USF.COMPS:SHP:1,2017-08-01T14:36:00Z,30.0600,-84.2910,60.35,1111122 
COMPS,ioos:station:USF.COMPS:SHP:1,2017-08-01T14:42:00Z,30.0600,-84.2910,59.7,1111122 
COMPS,ioos:station:USF.COMPS:SHP:1,2017-08-01T14:48:00Z,30.0600,-84.2910,59.59,1111122 
COMPS,ioos:station:USF.COMPS:SHP:1,2017-08-01T14:54:00Z,30.0600,-84.2910,59.6,1111122 
COMPS,ioos:station:USF.COMPS:SHP:1,2017-08-01T15:00:00Z,30.0600,-84.2910,58.85,1111122 
COMPS,ioos:station:USF.COMPS:SHP:1,2017-08-01T15:06:00Z,30.0600,-84.2910,57.68,1111122 
COMPS,ioos:station:USF.COMPS:SHP:1,2017-08-01T15:12:00Z,30.0600,-84.2910,58.25,1111122 
COMPS,ioos:station:USF.COMPS:SHP:1,2017-08-01T15:18:00Z,30.0600,-84.2910,57.24,1111122 
COMPS,ioos:station:USF.COMPS:SHP:1,2017-08-01T15:24:00Z,30.0600,-84.2910,57.36,1111122 
COMPS,ioos:station:USF.COMPS:SHP:1,2017-08-01T15:30:00Z,30.0600,-84.2910,56.9,1111122 
COMPS,ioos:station:USF.COMPS:SHP:1,2017-08-01T15:36:00Z,30.0600,-84.2910,57.33,1111122 
COMPS,ioos:station:USF.COMPS:SHP:1,2017-08-01T15:42:00Z,30.0600,-84.2910,57.78,1111122 
COMPS,ioos:station:USF.COMPS:SHP:1,2017-08-01T15:48:00Z,30.0600,-84.2910,58.1,1111122 
COMPS,ioos:station:USF.COMPS:SHP:1,2017-08-01T15:54:00Z,30.0600,-84.2910,57.22,1111122 
COMPS,ioos:station:USF.COMPS:SHP:1,2017-08-01T16:00:00Z,30.0600,-84.2910,57.22,1111122 
COMPS,ioos:station:USF.COMPS:SHP:1,2017-08-01T16:06:00Z,30.0600,-84.2910,57.85,1111122 
COMPS,ioos:station:USF.COMPS:SHP:1,2017-08-01T16:12:00Z,30.0600,-84.2910,57.65,1111122 
COMPS,ioos:station:USF.COMPS:SHP:1,2017-08-01T16:18:00Z,30.0600,-84.2910,59.29,1111122 
COMPS,ioos:station:USF.COMPS:SHP:1,2017-08-01T16:24:00Z,30.0600,-84.2910,59.4,1111122 
COMPS,ioos:station:USF.COMPS:SHP:1,2017-08-01T16:30:00Z,30.0600,-84.2910,60.27,1111122 
COMPS,ioos:station:USF.COMPS:SHP:1,2017-08-01T16:36:00Z,30.0600,-84.2910,59.7,1111122 
COMPS,ioos:station:USF.COMPS:SHP:1,2017-08-01T16:42:00Z,30.0600,-84.2910,60.0,1111122 
COMPS,ioos:station:USF.COMPS:SHP:1,2017-08-01T16:48:00Z,30.0600,-84.2910,59.32,1111122 
COMPS,ioos:station:USF.COMPS:SHP:1,2017-08-01T16:54:00Z,30.0600,-84.2910,59.99,1111122 
COMPS,ioos:station:USF.COMPS:SHP:1,2017-08-01T17:00:00Z,30.0600,-84.2910,59.58,1111122 
COMPS,ioos:station:USF.COMPS:SHP:1,2017-08-01T17:06:00Z,30.0600,-84.2910,58.14,1111122 
COMPS,ioos:station:USF.COMPS:SHP:1,2017-08-01T17:12:00Z,30.0600,-84.2910,58.14,1111122 
COMPS,ioos:station:USF.COMPS:SHP:1,2017-08-01T17:18:00Z,30.0600,-84.2910,58.58,1111122 
COMPS,ioos:station:USF.COMPS:SHP:1,2017-08-01T17:24:00Z,30.0600,-84.2910,57.8,1111122 
COMPS,ioos:station:USF.COMPS:SHP:1,2017-08-01T17:30:00Z,30.0600,-84.2910,57.11,1111122 
COMPS,ioos:station:USF.COMPS:SHP:1,2017-08-01T17:36:00Z,30.0600,-84.2910,57.29,1111122 
COMPS,ioos:station:USF.COMPS:SHP:1,2017-08-01T17:42:00Z,30.0600,-84.2910,57.55,1111122 
COMPS,ioos:station:USF.COMPS:SHP:1,2017-08-01T17:48:00Z,30.0600,-84.2910,57.1,1111122 
COMPS,ioos:station:USF.COMPS:SHP:1,2017-08-01T17:54:00Z,30.0600,-84.2910,57.77,1111122 
COMPS,ioos:station:USF.COMPS:SHP:1,2017-08-01T18:00:00Z,30.0600,-84.2910,57.33,1111122 
COMPS,ioos:station:USF.COMPS:SHP:1,2017-08-01T18:06:00Z,30.0600,-84.2910,57.33,1111122 
COMPS,ioos:station:USF.COMPS:SHP:1,2017-08-01T18:12:00Z,30.0600,-84.2910,58.44,1111122 
COMPS,ioos:station:USF.COMPS:SHP:1,2017-08-01T18:18:00Z,30.0600,-84.2910,57.86,1111122 
COMPS,ioos:station:USF.COMPS:SHP:1,2017-08-01T18:24:00Z,30.0600,-84.2910,57.29,1111122 
COMPS,ioos:station:USF.COMPS:SHP:1,2017-08-01T18:30:00Z,30.0600,-84.2910,56.77,1111122 
COMPS,ioos:station:USF.COMPS:SHP:1,2017-08-01T18:36:00Z,30.0600,-84.2910,56.66,1111122 
COMPS,ioos:station:USF.COMPS:SHP:1,2017-08-01T18:42:00Z,30.0600,-84.2910,56.06,1111122 
COMPS,ioos:station:USF.COMPS:SHP:1,2017-08-01T18:48:00Z,30.0600,-84.2910,56.25,1111122 
COMPS,ioos:station:USF.COMPS:SHP:1,2017-08-01T18:54:00Z,30.0600,-84.2910,56.09,1111122 
COMPS,ioos:station:USF.COMPS:SHP:1,2017-08-01T19:00:00Z,30.0600,-84.2910,55.28,1111122 
COMPS,ioos:station:USF.COMPS:SHP:1,2017-08-01T19:06:00Z,30.0600,-84.2910,55.63,1111122 
COMPS,ioos:station:USF.COMPS:SHP:1,2017-08-01T19:12:00Z,30.0600,-84.2910,54.9,1111122 
COMPS,ioos:station:USF.COMPS:SHP:1,2017-08-01T19:18:00Z,30.0600,-84.2910,54.76,1111122 
COMPS,ioos:station:USF.COMPS:SHP:1,2017-08-01T19:24:00Z,30.0600,-84.2910,53.7,1111122 
COMPS,ioos:station:USF.COMPS:SHP:1,2017-08-01T19:30:00Z,30.0600,-84.2910,54.73,1111122 
COMPS,ioos:station:USF.COMPS:SHP:1,2017-08-01T19:36:00Z,30.0600,-84.2910,53.76,1111122 
COMPS,ioos:station:USF.COMPS:SHP:1,2017-08-01T19:42:00Z,30.0600,-84.2910,54.5,1111122 
COMPS,ioos:station:USF.COMPS:SHP:1,2017-08-01T19:48:00Z,30.0600,-84.2910,54.38,1111122 
COMPS,ioos:station:USF.COMPS:SHP:1,2017-08-01T19:54:00Z,30.0600,-84.2910,53.19,1111122 
COMPS,ioos:station:USF.COMPS:SHP:1,2017-08-01T20:00:00Z,30.0600,-84.2910,54.56,1111122 
COMPS,ioos:station:USF.COMPS:SHP:1,2017-08-01T20:06:00Z,30.0600,-84.2910,54.76,1111122 
COMPS,ioos:station:USF.COMPS:SHP:1,2017-08-01T20:12:00Z,30.0600,-84.2910,54.57,1111122 
COMPS,ioos:station:USF.COMPS:SHP:1,2017-08-01T20:18:00Z,30.0600,-84.2910,53.84,1111122 
COMPS,ioos:station:USF.COMPS:SHP:1,2017-08-01T20:24:00Z,30.0600,-84.2910,53.7,1111122 
COMPS,ioos:station:USF.COMPS:SHP:1,2017-08-01T20:30:00Z,30.0600,-84.2910,53.81,1111122 
COMPS,ioos:station:USF.COMPS:SHP:1,2017-08-01T20:36:00Z,30.0600,-84.2910,54.21,1111122 
COMPS,ioos:station:USF.COMPS:SHP:1,2017-08-01T20:42:00Z,30.0600,-84.2910,54.49,1111122 
COMPS,ioos:station:USF.COMPS:SHP:1,2017-08-01T20:48:00Z,30.0600,-84.2910,53.65,1111122 
COMPS,ioos:station:USF.COMPS:SHP:1,2017-08-01T20:54:00Z,30.0600,-84.2910,54.05,1111122 
COMPS,ioos:station:USF.COMPS:SHP:1,2017-08-01T21:00:00Z,30.0600,-84.2910,54.48,1111122 
COMPS,ioos:station:USF.COMPS:SHP:1,2017-08-01T21:06:00Z,30.0600,-84.2910,53.91,1111122 
COMPS,ioos:station:USF.COMPS:SHP:1,2017-08-01T21:12:00Z,30.0600,-84.2910,51.56,1111122 
COMPS,ioos:station:USF.COMPS:SHP:1,2017-08-01T21:18:00Z,30.0600,-84.2910,51.15,1111122 
COMPS,ioos:station:USF.COMPS:SHP:1,2017-08-01T21:24:00Z,30.0600,-84.2910,51.95,1111122 
COMPS,ioos:station:USF.COMPS:SHP:1,2017-08-01T21:30:00Z,30.0600,-84.2910,51.57,1111122 
COMPS,ioos:station:USF.COMPS:SHP:1,2017-08-01T21:36:00Z,30.0600,-84.2910,52.82,1111122 
COMPS,ioos:station:USF.COMPS:SHP:1,2017-08-01T21:42:00Z,30.0600,-84.2910,51.89,1111122 
COMPS,ioos:station:USF.COMPS:SHP:1,2017-08-01T21:48:00Z,30.0600,-84.2910,51.55,1111122 
COMPS,ioos:station:USF.COMPS:SHP:1,2017-08-01T21:54:00Z,30.0600,-84.2910,52.19,1111122 
COMPS,ioos:station:USF.COMPS:SHP:1,2017-08-01T22:00:00Z,30.0600,-84.2910,52.29,1111122 
COMPS,ioos:station:USF.COMPS:SHP:1,2017-08-01T22:06:00Z,30.0600,-84.2910,51.56,1111122 
COMPS,ioos:station:USF.COMPS:SHP:1,2017-08-01T22:12:00Z,30.0600,-84.2910,51.49,1111122 
COMPS,ioos:station:USF.COMPS:SHP:1,2017-08-01T22:18:00Z,30.0600,-84.2910,50.93,1111122 
COMPS,ioos:station:USF.COMPS:SHP:1,2017-08-01T22:24:00Z,30.0600,-84.2910,49.97,1111122 
COMPS,ioos:station:USF.COMPS:SHP:1,2017-08-01T22:30:00Z,30.0600,-84.2910,52.8,1111122 
COMPS,ioos:station:USF.COMPS:SHP:1,2017-08-01T22:36:00Z,30.0600,-84.2910,51.32,1111122 
COMPS,ioos:station:USF.COMPS:SHP:1,2017-08-01T22:42:00Z,30.0600,-84.2910,50.96,1111122 
COMPS,ioos:station:USF.COMPS:SHP:1,2017-08-01T22:48:00Z,30.0600,-84.2910,50.19,1111122 
COMPS,ioos:station:USF.COMPS:SHP:1,2017-08-01T22:54:00Z,30.0600,-84.2910,49.65,1111122 
COMPS,ioos:station:USF.COMPS:SHP:1,2017-08-01T23:00:00Z,30.0600,-84.2910,51.3,1111122 
COMPS,ioos:station:USF.COMPS:SHP:1,2017-08-01T23:06:00Z,30.0600,-84.2910,51.19,1111122 
COMPS,ioos:station:USF.COMPS:SHP:1,2017-08-01T23:12:00Z,30.0600,-84.2910,51.18,1111122 
COMPS,ioos:station:USF.COMPS:SHP:1,2017-08-01T23:18:00Z,30.0600,-84.2910,50.43,1111122 
COMPS,ioos:station:USF.COMPS:SHP:1,2017-08-01T23:24:00Z,30.0600,-84.2910,50.37,1111122 
COMPS,ioos:station:USF.COMPS:SHP:1,2017-08-01T23:30:00Z,30.0600,-84.2910,50.4,1111122 
COMPS,ioos:station:USF.COMPS:SHP:1,2017-08-01T23:36:00Z,30.0600,-84.2910,50.06,1111122 
COMPS,ioos:station:USF.COMPS:SHP:1,2017-08-01T23:42:00Z,30.0600,-84.2910,51.58,1111122 
COMPS,ioos:station:USF.COMPS:SHP:1,2017-08-01T23:48:00Z,30.0600,-84.2910,52.11,1111122 
COMPS,ioos:station:USF.COMPS:SHP:1,2017-08-01T23:54:00Z,30.0600,-84.2910,53.46,1111122 
COMPS,ioos:station:USF.COMPS:SHP:1,2017-08-02T00:00:00Z,30.0600,-84.2910,54.51,1111122 
COMPS,ioos:station:USF.COMPS:SHP:1,2017-08-02T00:06:00Z,30.0600,-84.2910,55.56,1111122 
COMPS,ioos:station:USF.COMPS:SHP:1,2017-08-02T00:12:00Z,30.0600,-84.2910,56.81,1111122 
COMPS,ioos:station:USF.COMPS:SHP:1,2017-08-02T00:18:00Z,30.0600,-84.2910,57.52,1111122 
COMPS,ioos:station:USF.COMPS:SHP:1,2017-08-02T00:24:00Z,30.0600,-84.2910,59.67,1111122 
COMPS,ioos:station:USF.COMPS:SHP:1,2017-08-02T00:30:00Z,30.0600,-84.2910,60.64,1111122 
COMPS,ioos:station:USF.COMPS:SHP:1,2017-08-02T00:36:00Z,30.0600,-84.2910,60.89,1111122 
COMPS,ioos:station:USF.COMPS:SHP:1,2017-08-02T00:42:00Z,30.0600,-84.2910,62.3,1111122 
COMPS,ioos:station:USF.COMPS:SHP:1,2017-08-02T00:48:00Z,30.0600,-84.2910,61.49,1111122 
COMPS,ioos:station:USF.COMPS:SHP:1,2017-08-02T00:54:00Z,30.0600,-84.2910,62.8,1111122 
COMPS,ioos:station:USF.COMPS:SHP:1,2017-08-02T01:00:00Z,30.0600,-84.2910,60.84,1111122 
COMPS,ioos:station:USF.COMPS:SHP:1,2017-08-02T01:06:00Z,30.0600,-84.2910,59.8,1111122 
COMPS,ioos:station:USF.COMPS:SHP:1,2017-08-02T01:12:00Z,30.0600,-84.2910,61.25,1111122 
COMPS,ioos:station:USF.COMPS:SHP:1,2017-08-02T01:18:00Z,30.0600,-84.2910,61.09,1111122 
COMPS,ioos:station:USF.COMPS:SHP:1,2017-08-02T01:24:00Z,30.0600,-84.2910,61.12,1111122 
COMPS,ioos:station:USF.COMPS:SHP:1,2017-08-02T01:30:00Z,30.0600,-84.2910,61.52,1111122 
COMPS,ioos:station:USF.COMPS:SHP:1,2017-08-02T01:36:00Z,30.0600,-84.2910,62.2,1111122 
COMPS,ioos:station:USF.COMPS:SHP:1,2017-08-02T01:42:00Z,30.0600,-84.2910,63.98,1111122 
COMPS,ioos:station:USF.COMPS:SHP:1,2017-08-02T01:48:00Z,30.0600,-84.2910,66.72,1111122 
COMPS,ioos:station:USF.COMPS:SHP:1,2017-08-02T01:54:00Z,30.0600,-84.2910,66.07,1111122 
COMPS,ioos:station:USF.COMPS:SHP:1,2017-08-02T02:00:00Z,30.0600,-84.2910,66.41,1111122 
COMPS,ioos:station:USF.COMPS:SHP:1,2017-08-02T02:06:00Z,30.0600,-84.2910,66.58,1111122 
COMPS,ioos:station:USF.COMPS:SHP:1,2017-08-02T02:12:00Z,30.0600,-84.2910,67.33,1111122 
COMPS,ioos:station:USF.COMPS:SHP:1,2017-08-02T02:18:00Z,30.0600,-84.2910,67.3,1111122 
COMPS,ioos:station:USF.COMPS:SHP:1,2017-08-02T02:24:00Z,30.0600,-84.2910,68.07,1111122 
COMPS,ioos:station:USF.COMPS:SHP:1,2017-08-02T02:30:00Z,30.0600,-84.2910,67.14,1111122 
COMPS,ioos:station:USF.COMPS:SHP:1,2017-08-02T02:36:00Z,30.0600,-84.2910,66.96,1111122 
COMPS,ioos:station:USF.COMPS:SHP:1,2017-08-02T02:42:00Z,30.0600,-84.2910,67.51,1111122 
COMPS,ioos:station:USF.COMPS:SHP:1,2017-08-02T02:48:00Z,30.0600,-84.2910,67.88,1111122 
COMPS,ioos:station:USF.COMPS:SHP:1,2017-08-02T02:54:00Z,30.0600,-84.2910,67.4,1111122 
COMPS,ioos:station:USF.COMPS:SHP:1,2017-08-02T03:00:00Z,30.0600,-84.2910,67.64,1111122 
COMPS,ioos:station:USF.COMPS:SHP:1,2017-08-02T03:06:00Z,30.0600,-84.2910,69.8,1111122 